{"data":{"norad_id":58941,"intl_designator":"2024-027L","name":"STARLINK-31345","alt_names":[],"object_type":"PAYLOAD","status":"ACTIVE","operator":null,"country":"US","launch_date":"2024-02-10","launch_site_code":"AFWTR","launch_vehicle":null,"mission":null,"orbit_class":"UNKNOWN","rcs_meters":null,"size_class":null,"mass_kg":null,"dimensions":null,"purposes":["comms"],"wikipedia_slug":null,"has_3d_model":false,"image_url":null,"decayed_at":null,"tle_current":{"epoch":"2026-09-20T01:02:56.911200Z","epoch_age_seconds":195141,"freshness":"STALE","line1":"1 58941U 24027L   26263.04371425  .00000758  00000+0  33573-4 0  9991","line2":"2 58941  53.1603 125.5320 0001271  81.3694 278.7452 15.34392853147108","mean_motion":15.34392853,"eccentricity":0.0001271,"inclination_deg":53.1603,"raan_deg":125.532,"arg_perigee_deg":81.3694,"mean_anomaly_deg":278.7452,"bstar":3.3573e-5,"rev_number":14710,"period_min":93.848195211843,"perigee_km":461.85500918527,"apogee_km":463.59395617417,"semimajor_km":6840.8614826797,"source":"CELESTRAK","updated_at":"2026-09-21T09:00:33.998045Z"}}}